Wetterdaten: Montag, 13.07.2015
Datum Zeit Auen-Temp. Temp gefhlt Luftfeuchte Luftdruck Regen Wind Richtung Richtung Taupunkt Windben
13.07.2015 00:00 17,6 C 17,5 C 59 % 1014,8 hPa 0,0 mm 2,1 km/h (1 Bft) W-NW 292 9,5 C 2,8 km/h (1 Bft)
13.07.2015 00:05 17,5 C 17,4 C 59 % 1014,8 hPa 0,0 mm 2,1 km/h (1 Bft) W 270 9,4 C 2,6 km/h (1 Bft)
13.07.2015 00:10 17,4 C 17,3 C 59 % 1014,6 hPa 0,0 mm 0,8 km/h (0 Bft) W-NW 292 9,3 C 3,4 km/h (1 Bft)
13.07.2015 00:15 17,3 C 17,2 C 59 % 1014,6 hPa 0,0 mm 0,3 km/h (0 Bft) S-SO 157 9,2 C 0,0 km/h (0 Bft)
13.07.2015 00:20 17,3 C 17,3 C 59 % 1014,6 hPa 0,0 mm 0,8 km/h (0 Bft) N-NO 22 9,2 C 7,8 km/h (2 Bft)
13.07.2015 00:25 17,4 C 17,3 C 59 % 1014,6 hPa 0,0 mm 1,0 km/h (0 Bft) W-NW 292 9,3 C 2,8 km/h (1 Bft)
13.07.2015 00:30 17,3 C 17,3 C 59 % 1014,6 hPa 0,0 mm 0,8 km/h (0 Bft) S-SW 202 9,2 C 0,0 km/h (0 Bft)
13.07.2015 00:35 17,2 C 17,2 C 59 % 1014,6 hPa 0,0 mm 0,8 km/h (0 Bft) W-NW 292 9,1 C 7,3 km/h (2 Bft)
13.07.2015 00:40 17,1 C 17,1 C 58 % 1014,6 hPa 0,0 mm 0,8 km/h (0 Bft) NW 315 8,8 C 3,4 km/h (1 Bft)
13.07.2015 00:45 17,1 C 17,0 C 58 % 1014,6 hPa 0,0 mm 2,3 km/h (1 Bft) W-SW 247 8,8 C 10,9 km/h (2 Bft)
13.07.2015 00:50 17,0 C 16,9 C 57 % 1014,6 hPa 0,0 mm 5,4 km/h (1 Bft) NW 315 8,4 C 14,8 km/h (3 Bft)
13.07.2015 00:55 16,8 C 16,8 C 58 % 1014,6 hPa 0,0 mm 6,2 km/h (2 Bft) W-NW 292 8,5 C 8,0 km/h (2 Bft)
13.07.2015 01:00 16,7 C 16,6 C 58 % 1014,6 hPa 0,0 mm 4,9 km/h (1 Bft) W-NW 292 8,4 C 5,4 km/h (1 Bft)
13.07.2015 01:05 16,5 C 16,5 C 59 % 1014,6 hPa 0,0 mm 3,9 km/h (1 Bft) N-NW 337 8,5 C 0,0 km/h (0 Bft)
13.07.2015 01:10 16,2 C 16,2 C 60 % 1014,5 hPa 0,0 mm 3,6 km/h (1 Bft) NW 315 8,4 C 8,0 km/h (2 Bft)
13.07.2015 01:15 16,1 C 16,0 C 60 % 1014,5 hPa 0,0 mm 4,1 km/h (1 Bft) S-SO 157 8,3 C 0,0 km/h (0 Bft)
13.07.2015 01:20 15,9 C 15,8 C 61 % 1014,5 hPa 0,0 mm 2,3 km/h (1 Bft) O-SO 112 8,4 C 0,0 km/h (0 Bft)
13.07.2015 01:25 15,8 C 15,7 C 63 % 1014,5 hPa 0,0 mm 0,3 km/h (0 Bft) S 180 8,8 C 2,8 km/h (1 Bft)
13.07.2015 01:30 15,8 C 15,7 C 63 % 1013,9 hPa 0,0 mm 1,0 km/h (0 Bft) S 180 8,8 C 4,9 km/h (1 Bft)
13.07.2015 01:35 15,7 C 15,6 C 64 % 1013,9 hPa 0,0 mm 1,6 km/h (1 Bft) S-SO 157 8,9 C 0,0 km/h (0 Bft)
13.07.2015 01:40 15,6 C 15,5 C 65 % 1013,9 hPa 0,0 mm 1,6 km/h (1 Bft) SO 135 9,0 C 0,0 km/h (0 Bft)
13.07.2015 01:45 15,6 C 15,5 C 65 % 1013,9 hPa 0,0 mm 0,5 km/h (0 Bft) W-NW 292 9,0 C 0,0 km/h (0 Bft)
13.07.2015 01:50 15,4 C 15,3 C 68 % 1014,4 hPa 0,0 mm 2,8 km/h (1 Bft) NW 315 9,5 C 15,8 km/h (3 Bft)
13.07.2015 01:55 15,4 C 15,3 C 69 % 1014,4 hPa 0,0 mm 7,8 km/h (2 Bft) W-NW 292 9,7 C 22,3 km/h (4 Bft)
13.07.2015 02:00 14,8 C 14,6 C 73 % 1014,4 hPa 0,0 mm 11,9 km/h (2 Bft) W 270 10,0 C 23,0 km/h (4 Bft)
13.07.2015 02:05 14,4 C 14,1 C 73 % 1014,4 hPa 0,0 mm 8,0 km/h (2 Bft) NW 315 9,6 C 3,1 km/h (1 Bft)
13.07.2015 02:10 14,1 C 13,8 C 74 % 1014,2 hPa 0,7 mm 3,6 km/h (1 Bft) S-SO 157 9,5 C 0,0 km/h (0 Bft)
13.07.2015 02:15 13,9 C 13,5 C 76 % 1014,2 hPa 0,0 mm 2,1 km/h (1 Bft) S-SW 202 9,7 C 0,0 km/h (0 Bft)
13.07.2015 02:20 13,8 C 13,5 C 76 % 1014,2 hPa 0,0 mm 0,3 km/h (0 Bft) S 180 9,6 C 3,4 km/h (1 Bft)
13.07.2015 02:25 13,7 C 13,4 C 77 % 1014,2 hPa 0,0 mm 0,3 km/h (0 Bft) S 180 9,7 C 0,0 km/h (0 Bft)
13.07.2015 02:30 13,5 C 13,2 C 79 % 1014,4 hPa 1,4 mm 3,6 km/h (1 Bft) O 90 9,9 C 4,4 km/h (1 Bft)
13.07.2015 02:35 13,4 C 13,2 C 80 % 1014,4 hPa 0,0 mm 5,4 km/h (1 Bft) W-SW 247 10,0 C 9,1 km/h (2 Bft)
13.07.2015 02:40 13,4 C 13,1 C 81 % 1014,4 hPa 0,0 mm 6,2 km/h (2 Bft) W-SW 247 10,2 C 13,7 km/h (3 Bft)
13.07.2015 02:45 13,3 C 13,1 C 82 % 1014,4 hPa 0,7 mm 6,7 km/h (2 Bft) S 180 10,3 C 9,8 km/h (2 Bft)
13.07.2015 02:50 13,3 C 13,1 C 82 % 1014,2 hPa 0,0 mm 6,0 km/h (2 Bft) O-NO 67 10,3 C 0,0 km/h (0 Bft)
13.07.2015 02:55 13,3 C 13,1 C 82 % 1014,2 hPa 0,0 mm 3,4 km/h (1 Bft) S-SW 202 10,3 C 4,9 km/h (1 Bft)
13.07.2015 03:00 13,2 C 13,0 C 83 % 1014,2 hPa 0,0 mm 3,4 km/h (1 Bft) W-SW 247 10,4 C 9,3 km/h (2 Bft)
13.07.2015 03:05 13,2 C 13,0 C 83 % 1014,2 hPa 0,0 mm 3,4 km/h (1 Bft) O-NO 67 10,4 C 0,0 km/h (0 Bft)
13.07.2015 03:10 13,2 C 13,0 C 83 % 1013,9 hPa 0,0 mm 1,3 km/h (1 Bft) O-SO 112 10,4 C 2,8 km/h (1 Bft)
13.07.2015 03:15 13,2 C 13,0 C 84 % 1013,9 hPa 0,0 mm 1,0 km/h (0 Bft) SW 225 10,6 C 4,9 km/h (1 Bft)
13.07.2015 03:20 13,2 C 13,0 C 84 % 1013,9 hPa 0,0 mm 0,8 km/h (0 Bft) W-SW 247 10,6 C 0,0 km/h (0 Bft)
13.07.2015 03:25 13,2 C 13,0 C 84 % 1013,9 hPa 0,0 mm 0,8 km/h (0 Bft) S-SO 157 10,6 C 0,0 km/h (0 Bft)
13.07.2015 03:30 13,2 C 13,1 C 79 % 1014,1 hPa 0,0 mm 0,0 km/h (0 Bft) SW 225 9,6 C 0,0 km/h (0 Bft)
13.07.2015 03:35 13,2 C 13,1 C 79 % 1014,1 hPa 0,0 mm 0,3 km/h (0 Bft) SO 135 9,6 C 0,0 km/h (0 Bft)
13.07.2015 03:40 13,2 C 13,1 C 80 % 1014,1 hPa 0,0 mm 0,5 km/h (0 Bft) O-NO 67 9,8 C 0,0 km/h (0 Bft)
13.07.2015 03:45 13,2 C 13,1 C 80 % 1014,1 hPa 0,0 mm 0,0 km/h (0 Bft) NO 45 9,8 C 0,0 km/h (0 Bft)
13.07.2015 03:50 13,2 C 13,1 C 80 % 1014,0 hPa 0,0 mm 0,0 km/h (0 Bft) O 90 9,8 C 0,0 km/h (0 Bft)
13.07.2015 03:55 13,2 C 13,1 C 85 % 1014,0 hPa 0,0 mm 0,0 km/h (0 Bft) O-SO 112 10,7 C 0,0 km/h (0 Bft)
13.07.2015 04:00 13,2 C 13,0 C 86 % 1014,0 hPa 0,0 mm 0,0 km/h (0 Bft) O-NO 67 10,9 C 0,0 km/h (0 Bft)
13.07.2015 04:05 13,2 C 13,0 C 86 % 1014,0 hPa 0,0 mm 0,0 km/h (0 Bft) S-SW 202 10,9 C 0,0 km/h (0 Bft)
13.07.2015 04:10 13,1 C 13,1 C 81 % 1014,2 hPa 0,0 mm 0,8 km/h (0 Bft) S 180 9,9 C 5,4 km/h (1 Bft)
13.07.2015 04:15 13,2 C 13,1 C 81 % 1014,2 hPa 0,0 mm 1,0 km/h (0 Bft) W-NW 292 10,0 C 0,0 km/h (0 Bft)
13.07.2015 04:20 13,2 C 13,1 C 81 % 1014,2 hPa 0,0 mm 1,0 km/h (0 Bft) N-NO 22 10,0 C 0,0 km/h (0 Bft)
13.07.2015 04:25 13,2 C 13,1 C 81 % 1014,2 hPa 0,0 mm 0,3 km/h (0 Bft) S 180 10,0 C 0,0 km/h (0 Bft)
13.07.2015 04:30 13,2 C 13,1 C 86 % 1014,2 hPa 0,0 mm 0,0 km/h (0 Bft) SO 135 10,9 C 0,0 km/h (0 Bft)
13.07.2015 04:35 13,1 C 13,0 C 82 % 1014,2 hPa 0,0 mm 0,3 km/h (0 Bft) O-SO 112 10,1 C 0,0 km/h (0 Bft)
13.07.2015 04:40 13,1 C 13,0 C 86 % 1014,2 hPa 0,0 mm 0,3 km/h (0 Bft) SO 135 10,8 C 0,0 km/h (0 Bft)
13.07.2015 04:45 13,1 C 12,9 C 86 % 1014,2 hPa 0,0 mm 0,0 km/h (0 Bft) S-SW 202 10,8 C 0,0 km/h (0 Bft)
13.07.2015 04:50 13,2 C 13,0 C 87 % 1014,2 hPa 0,0 mm 2,1 km/h (1 Bft) S 180 11,1 C 4,9 km/h (1 Bft)
13.07.2015 04:55 13,1 C 12,9 C 87 % 1014,2 hPa 0,0 mm 2,8 km/h (1 Bft) S 180 11,0 C 0,0 km/h (0 Bft)
13.07.2015 05:00 13,2 C 13,0 C 87 % 1014,2 hPa 0,0 mm 2,8 km/h (1 Bft) SO 135 11,1 C 0,0 km/h (0 Bft)
13.07.2015 05:05 13,2 C 13,0 C 87 % 1014,2 hPa 0,0 mm 1,8 km/h (1 Bft) SO 135 11,1 C 0,0 km/h (0 Bft)
13.07.2015 05:10 13,1 C 12,9 C 87 % 1014,1 hPa 0,0 mm 0,5 km/h (0 Bft) N-NO 22 11,0 C 0,0 km/h (0 Bft)
13.07.2015 05:15 13,1 C 12,9 C 87 % 1014,1 hPa 0,0 mm 0,5 km/h (0 Bft) O-SO 112 11,0 C 0,0 km/h (0 Bft)
13.07.2015 05:20 13,0 C 12,8 C 87 % 1014,1 hPa 0,0 mm 0,0 km/h (0 Bft) NO 45 10,9 C 0,0 km/h (0 Bft)
13.07.2015 05:25 13,0 C 12,8 C 87 % 1014,1 hPa 0,0 mm 0,0 km/h (0 Bft) O-SO 112 10,9 C 0,0 km/h (0 Bft)
13.07.2015 05:30 13,0 C 12,8 C 87 % 1013,8 hPa 0,0 mm 0,0 km/h (0 Bft) W-SW 247 10,9 C 0,0 km/h (0 Bft)
13.07.2015 05:35 13,0 C 12,8 C 87 % 1013,8 hPa 0,0 mm 0,0 km/h (0 Bft) O-NO 67 10,9 C 0,0 km/h (0 Bft)
13.07.2015 05:40 13,0 C 12,8 C 87 % 1013,8 hPa 0,0 mm 0,0 km/h (0 Bft) O-SO 112 10,9 C 0,0 km/h (0 Bft)
13.07.2015 05:45 12,9 C 12,7 C 87 % 1013,8 hPa 0,0 mm 0,3 km/h (0 Bft) O-SO 112 10,8 C 0,0 km/h (0 Bft)
13.07.2015 05:50 12,9 C 12,7 C 87 % 1013,9 hPa 0,0 mm 0,3 km/h (0 Bft) O-NO 67 10,8 C 0,0 km/h (0 Bft)
13.07.2015 05:55 12,9 C 12,7 C 87 % 1013,9 hPa 0,0 mm 0,0 km/h (0 Bft) W-SW 247 10,8 C 0,0 km/h (0 Bft)
13.07.2015 06:00 12,9 C 12,7 C 87 % 1013,9 hPa 0,0 mm 1,3 km/h (1 Bft) O 90 10,8 C 0,0 km/h (0 Bft)
13.07.2015 06:05 13,0 C 12,8 C 87 % 1013,9 hPa 0,0 mm 1,8 km/h (1 Bft) O-NO 67 10,9 C 0,0 km/h (0 Bft)
13.07.2015 06:10 12,9 C 12,7 C 87 % 1013,9 hPa 0,0 mm 1,6 km/h (1 Bft) O-SO 112 10,8 C 3,1 km/h (1 Bft)
13.07.2015 06:15 12,9 C 12,7 C 88 % 1013,9 hPa 0,0 mm 0,8 km/h (0 Bft) O 90 11,0 C 0,0 km/h (0 Bft)
13.07.2015 06:20 12,9 C 12,7 C 88 % 1013,9 hPa 0,0 mm 0,3 km/h (0 Bft) O 90 11,0 C 0,0 km/h (0 Bft)
13.07.2015 06:25 12,9 C 12,7 C 88 % 1013,9 hPa 0,0 mm 0,0 km/h (0 Bft) S 180 11,0 C 0,0 km/h (0 Bft)
13.07.2015 06:30 12,9 C 12,7 C 88 % 1013,9 hPa 0,0 mm 0,5 km/h (0 Bft) W 270 11,0 C 5,4 km/h (1 Bft)
13.07.2015 06:35 12,9 C 12,7 C 88 % 1013,9 hPa 0,0 mm 0,8 km/h (0 Bft) O-SO 112 11,0 C 0,0 km/h (0 Bft)
13.07.2015 06:40 12,9 C 12,7 C 88 % 1013,9 hPa 0,0 mm 0,5 km/h (0 Bft) O 90 11,0 C 0,0 km/h (0 Bft)
13.07.2015 06:45 12,9 C 12,8 C 85 % 1013,9 hPa 0,0 mm 0,3 km/h (0 Bft) O-SO 112 10,4 C 0,0 km/h (0 Bft)
13.07.2015 06:50 13,0 C 12,9 C 84 % 1014,1 hPa 0,0 mm 1,6 km/h (1 Bft) SO 135 10,4 C 6,7 km/h (2 Bft)
13.07.2015 06:55 13,1 C 13,0 C 84 % 1014,1 hPa 0,0 mm 1,8 km/h (1 Bft) O 90 10,5 C 0,0 km/h (0 Bft)
13.07.2015 07:00 13,2 C 13,1 C 84 % 1014,1 hPa 0,0 mm 1,0 km/h (0 Bft) S 180 10,6 C 3,6 km/h (1 Bft)
13.07.2015 07:05 13,2 C 13,2 C 84 % 1014,1 hPa 0,0 mm 1,8 km/h (1 Bft) S-SW 202 10,6 C 4,1 km/h (1 Bft)
13.07.2015 07:10 13,3 C 13,2 C 84 % 1014,0 hPa 0,0 mm 1,8 km/h (1 Bft) O-SO 112 10,7 C 0,0 km/h (0 Bft)
13.07.2015 07:15 13,3 C 13,2 C 84 % 1014,0 hPa 0,0 mm 0,3 km/h (0 Bft) O-SO 112 10,7 C 0,0 km/h (0 Bft)
13.07.2015 07:20 13,4 C 13,4 C 84 % 1014,0 hPa 0,0 mm 0,0 km/h (0 Bft) SO 135 10,8 C 0,0 km/h (0 Bft)
13.07.2015 07:25 13,4 C 13,4 C 84 % 1014,0 hPa 0,0 mm 0,5 km/h (0 Bft) NO 45 10,8 C 3,4 km/h (1 Bft)
13.07.2015 07:30 13,5 C 13,6 C 84 % 1014,1 hPa 0,0 mm 1,0 km/h (0 Bft) NO 45 10,8 C 0,0 km/h (0 Bft)
13.07.2015 07:35 13,6 C 13,7 C 84 % 1014,1 hPa 0,0 mm 0,8 km/h (0 Bft) NO 45 10,9 C 0,0 km/h (0 Bft)
13.07.2015 07:40 13,7 C 13,9 C 84 % 1014,1 hPa 0,0 mm 0,0 km/h (0 Bft) NW 315 11,0 C 0,0 km/h (0 Bft)
13.07.2015 07:45 13,8 C 14,0 C 84 % 1014,1 hPa 0,0 mm 0,0 km/h (0 Bft) NO 45 11,1 C 0,0 km/h (0 Bft)
13.07.2015 07:50 13,8 C 13,9 C 84 % 1014,3 hPa 0,0 mm 0,0 km/h (0 Bft) NO 45 11,1 C 0,0 km/h (0 Bft)
13.07.2015 07:55 13,8 C 14,0 C 84 % 1014,3 hPa 0,0 mm 0,0 km/h (0 Bft) NW 315 11,1 C 0,0 km/h (0 Bft)
13.07.2015 07:57 13,8 C 14,0 C 84 % 1014,3 hPa 0,0 mm 0,0 km/h (0 Bft) NW 315 11,1 C 0,0 km/h (0 Bft)
13.07.2015 08:00 13,8 C 14,0 C 84 % 1014,3 hPa 0,0 mm 0,0 km/h (0 Bft) NW 315 11,1 C 0,0 km/h (0 Bft)
13.07.2015 08:05 13,9 C 14,2 C 84 % 1014,3 hPa 0,0 mm 0,0 km/h (0 Bft) SW 225 11,2 C 0,0 km/h (0 Bft)
13.07.2015 08:10 13,9 C 14,0 C 84 % 1014,6 hPa 0,0 mm 0,0 km/h (0 Bft) O 90 11,2 C 0,0 km/h (0 Bft)
13.07.2015 08:15 13,9 C 14,1 C 84 % 1014,6 hPa 0,0 mm 0,0 km/h (0 Bft) O-NO 67 11,2 C 0,0 km/h (0 Bft)
13.07.2015 08:20 14,1 C 14,3 C 83 % 1014,6 hPa 0,0 mm 0,0 km/h (0 Bft) NO 45 11,3 C 0,0 km/h (0 Bft)
13.07.2015 08:25 14,1 C 14,4 C 83 % 1014,6 hPa 0,0 mm 0,0 km/h (0 Bft) O-NO 67 11,3 C 0,0 km/h (0 Bft)
13.07.2015 08:30 14,3 C 14,6 C 83 % 1014,5 hPa 0,0 mm 0,0 km/h (0 Bft) O 90 11,5 C 0,0 km/h (0 Bft)
13.07.2015 08:35 14,4 C 14,9 C 83 % 1014,5 hPa 0,0 mm 0,0 km/h (0 Bft) NO 45 11,5 C 0,0 km/h (0 Bft)
13.07.2015 08:40 14,5 C 15,0 C 83 % 1014,5 hPa 0,0 mm 0,0 km/h (0 Bft) NO 45 11,6 C 0,0 km/h (0 Bft)
13.07.2015 08:45 14,6 C 15,1 C 83 % 1014,5 hPa 0,0 mm 0,0 km/h (0 Bft) NO 45 11,7 C 0,0 km/h (0 Bft)
13.07.2015 08:50 14,7 C 15,4 C 83 % 1014,6 hPa 0,0 mm 0,0 km/h (0 Bft) O 90 11,8 C 0,0 km/h (0 Bft)
13.07.2015 08:55 14,9 C 15,6 C 83 % 1014,6 hPa 0,0 mm 0,0 km/h (0 Bft) O-NO 67 12,0 C 0,0 km/h (0 Bft)
13.07.2015 09:00 15,0 C 15,8 C 83 % 1014,6 hPa 0,0 mm 0,0 km/h (0 Bft) N-NO 22 12,1 C 0,0 km/h (0 Bft)
13.07.2015 09:05 15,0 C 15,9 C 83 % 1014,6 hPa 0,0 mm 0,0 km/h (0 Bft) NO 45 12,1 C 0,0 km/h (0 Bft)
13.07.2015 09:10 15,0 C 15,8 C 83 % 1014,8 hPa 0,0 mm 0,0 km/h (0 Bft) O-NO 67 12,1 C 0,0 km/h (0 Bft)
13.07.2015 09:15 15,0 C 15,7 C 83 % 1014,8 hPa 0,0 mm 0,0 km/h (0 Bft) O-NO 67 12,1 C 0,0 km/h (0 Bft)
13.07.2015 09:20 15,0 C 15,7 C 83 % 1014,8 hPa 0,0 mm 0,0 km/h (0 Bft) NO 45 12,1 C 0,0 km/h (0 Bft)
13.07.2015 09:25 14,9 C 15,6 C 83 % 1014,8 hPa 0,0 mm 0,0 km/h (0 Bft) N-NW 337 12,0 C 0,0 km/h (0 Bft)
13.07.2015 09:30 15,0 C 15,6 C 82 % 1014,8 hPa 0,0 mm 0,0 km/h (0 Bft) N-NW 337 12,0 C 0,0 km/h (0 Bft)
13.07.2015 09:35 15,0 C 15,6 C 82 % 1014,8 hPa 0,0 mm 0,0 km/h (0 Bft) O-NO 67 12,0 C 0,0 km/h (0 Bft)
13.07.2015 09:40 15,2 C 16,1 C 82 % 1014,8 hPa 0,0 mm 0,3 km/h (0 Bft) NO 45 12,1 C 0,0 km/h (0 Bft)
13.07.2015 09:45 15,4 C 16,5 C 82 % 1014,8 hPa 0,0 mm 0,3 km/h (0 Bft) NO 45 12,3 C 4,1 km/h (1 Bft)
13.07.2015 09:50 15,7 C 17,4 C 81 % 1014,3 hPa 0,0 mm 0,8 km/h (0 Bft) O 90 12,4 C 4,4 km/h (1 Bft)
13.07.2015 09:55 15,9 C 17,8 C 81 % 1014,3 hPa 0,0 mm 1,8 km/h (1 Bft) NO 45 12,6 C 8,8 km/h (2 Bft)
13.07.2015 10:00 15,9 C 17,8 C 80 % 1014,3 hPa 0,0 mm 4,4 km/h (1 Bft) NO 45 12,5 C 10,9 km/h (2 Bft)
13.07.2015 10:05 15,8 C 17,4 C 80 % 1014,3 hPa 0,0 mm 5,7 km/h (1 Bft) N-NW 337 12,4 C 4,4 km/h (1 Bft)
13.07.2015 10:10 15,7 C 17,0 C 80 % 1014,8 hPa 0,0 mm 4,7 km/h (1 Bft) O-NO 67 12,3 C 2,6 km/h (1 Bft)
13.07.2015 10:15 15,7 C 17,1 C 80 % 1014,8 hPa 0,0 mm 3,4 km/h (1 Bft) N-NO 22 12,3 C 7,8 km/h (2 Bft)
13.07.2015 10:20 15,8 C 17,0 C 80 % 1014,8 hPa 0,0 mm 3,1 km/h (1 Bft) NO 45 12,4 C 7,8 km/h (2 Bft)
13.07.2015 10:25 15,8 C 17,2 C 79 % 1014,8 hPa 0,0 mm 4,9 km/h (1 Bft) N-NO 22 12,2 C 9,3 km/h (2 Bft)
13.07.2015 10:30 15,8 C 17,3 C 79 % 1014,6 hPa 0,0 mm 4,7 km/h (1 Bft) N-NO 22 12,2 C 5,2 km/h (1 Bft)
13.07.2015 10:35 15,9 C 17,4 C 78 % 1014,6 hPa 0,0 mm 3,6 km/h (1 Bft) NO 45 12,1 C 7,3 km/h (2 Bft)
13.07.2015 10:40 15,9 C 17,8 C 78 % 1014,6 hPa 0,0 mm 2,8 km/h (1 Bft) N-NO 22 12,1 C 7,0 km/h (2 Bft)
13.07.2015 10:45 16,0 C 18,0 C 77 % 1014,6 hPa 0,0 mm 3,4 km/h (1 Bft) O 90 12,0 C 3,9 km/h (1 Bft)
13.07.2015 10:50 16,0 C 18,0 C 77 % 1014,4 hPa 0,0 mm 2,3 km/h (1 Bft) N-NO 22 12,0 C 6,2 km/h (2 Bft)
13.07.2015 10:55 16,0 C 17,7 C 77 % 1014,4 hPa 0,0 mm 2,3 km/h (1 Bft) N-NW 337 12,0 C 0,0 km/h (0 Bft)
13.07.2015 11:00 15,9 C 17,1 C 77 % 1014,4 hPa 0,0 mm 4,1 km/h (1 Bft) NO 45 11,9 C 3,6 km/h (1 Bft)
13.07.2015 11:05 15,9 C 17,0 C 77 % 1014,4 hPa 0,0 mm 3,1 km/h (1 Bft) O-NO 67 11,9 C 0,0 km/h (0 Bft)
13.07.2015 11:10 15,9 C 17,0 C 78 % 1014,6 hPa 0,0 mm 1,3 km/h (1 Bft) O 90 12,1 C 0,0 km/h (0 Bft)
13.07.2015 11:15 15,9 C 17,3 C 77 % 1014,6 hPa 0,0 mm 2,1 km/h (1 Bft) NO 45 11,9 C 4,1 km/h (1 Bft)
13.07.2015 11:20 16,0 C 17,6 C 76 % 1014,6 hPa 0,0 mm 2,6 km/h (1 Bft) N-NO 22 11,8 C 3,1 km/h (1 Bft)
13.07.2015 11:25 16,1 C 17,8 C 76 % 1014,6 hPa 0,0 mm 3,6 km/h (1 Bft) O-NO 67 11,9 C 3,1 km/h (1 Bft)
13.07.2015 11:30 16,3 C 18,3 C 76 % 1014,7 hPa 0,0 mm 4,1 km/h (1 Bft) N-NW 337 12,1 C 6,2 km/h (2 Bft)
13.07.2015 11:35 16,4 C 18,4 C 76 % 1014,7 hPa 0,0 mm 2,6 km/h (1 Bft) N 360 12,2 C 4,7 km/h (1 Bft)
13.07.2015 11:40 16,4 C 18,3 C 76 % 1014,7 hPa 0,0 mm 2,1 km/h (1 Bft) O-NO 67 12,2 C 0,0 km/h (0 Bft)
13.07.2015 11:45 16,6 C 18,7 C 76 % 1014,7 hPa 0,0 mm 1,6 km/h (1 Bft) N-NO 22 12,3 C 0,0 km/h (0 Bft)
13.07.2015 11:50 16,7 C 19,2 C 75 % 1014,7 hPa 0,0 mm 0,3 km/h (0 Bft) O-SO 112 12,2 C 2,8 km/h (1 Bft)
13.07.2015 11:55 16,7 C 19,2 C 75 % 1014,7 hPa 0,0 mm 0,5 km/h (0 Bft) NO 45 12,2 C 4,1 km/h (1 Bft)
13.07.2015 12:00 16,7 C 19,2 C 75 % 1014,7 hPa 0,0 mm 0,5 km/h (0 Bft) N-NO 22 12,2 C 0,0 km/h (0 Bft)
13.07.2015 12:05 16,8 C 19,3 C 75 % 1014,7 hPa 0,0 mm 0,3 km/h (0 Bft) N 360 12,3 C 0,0 km/h (0 Bft)
13.07.2015 12:10 16,9 C 19,3 C 74 % 1014,7 hPa 0,0 mm 1,3 km/h (1 Bft) NW 315 12,2 C 3,1 km/h (1 Bft)
13.07.2015 12:15 16,9 C 19,3 C 74 % 1014,7 hPa 0,0 mm 1,3 km/h (1 Bft) NW 315 12,2 C 0,0 km/h (0 Bft)
13.07.2015 12:20 17,1 C 19,6 C 74 % 1014,7 hPa 0,0 mm 0,5 km/h (0 Bft) NW 315 12,4 C 3,1 km/h (1 Bft)
13.07.2015 12:25 17,2 C 19,9 C 73 % 1014,7 hPa 0,0 mm 0,8 km/h (0 Bft) N-NO 22 12,3 C 0,0 km/h (0 Bft)
13.07.2015 12:30 17,3 C 20,0 C 74 % 1014,3 hPa 0,0 mm 1,6 km/h (1 Bft) W-NW 292 12,6 C 4,1 km/h (1 Bft)
13.07.2015 12:35 17,4 C 20,1 C 73 % 1014,3 hPa 0,0 mm 1,6 km/h (1 Bft) W-NW 292 12,5 C 2,8 km/h (1 Bft)
13.07.2015 12:40 17,7 C 20,8 C 73 % 1014,3 hPa 0,0 mm 1,6 km/h (1 Bft) NW 315 12,8 C 0,0 km/h (0 Bft)
13.07.2015 12:45 17,6 C 21,2 C 73 % 1014,3 hPa 0,0 mm 1,3 km/h (1 Bft) O 90 12,7 C 3,4 km/h (1 Bft)
13.07.2015 12:50 17,7 C 21,5 C 73 % 1014,6 hPa 0,0 mm 0,5 km/h (0 Bft) N-NO 22 12,8 C 2,8 km/h (1 Bft)
13.07.2015 12:55 17,9 C 21,4 C 73 % 1014,6 hPa 0,0 mm 0,8 km/h (0 Bft) NW 315 13,0 C 4,4 km/h (1 Bft)
13.07.2015 13:00 17,8 C 20,7 C 72 % 1014,6 hPa 0,0 mm 0,8 km/h (0 Bft) N 360 12,7 C 0,0 km/h (0 Bft)
13.07.2015 13:05 17,8 C 20,2 C 72 % 1014,6 hPa 0,0 mm 0,8 km/h (0 Bft) N-NW 337 12,7 C 4,7 km/h (1 Bft)
13.07.2015 13:10 18,0 C 20,1 C 72 % 1014,5 hPa 0,0 mm 1,0 km/h (0 Bft) NW 315 12,9 C 3,4 km/h (1 Bft)
13.07.2015 13:15 18,0 C 20,0 C 72 % 1014,5 hPa 0,0 mm 2,3 km/h (1 Bft) N-NW 337 12,9 C 4,1 km/h (1 Bft)
13.07.2015 13:20 18,0 C 20,1 C 72 % 1014,5 hPa 0,0 mm 1,6 km/h (1 Bft) N 360 12,9 C 0,0 km/h (0 Bft)
13.07.2015 13:25 18,0 C 20,2 C 71 % 1014,5 hPa 0,0 mm 0,5 km/h (0 Bft) N 360 12,7 C 0,0 km/h (0 Bft)
13.07.2015 13:30 18,1 C 21,0 C 71 % 1014,6 hPa 0,0 mm 0,0 km/h (0 Bft) N-NW 337 12,8 C 0,0 km/h (0 Bft)
13.07.2015 13:35 18,5 C 22,0 C 70 % 1014,6 hPa 0,0 mm 0,3 km/h (0 Bft) N-NO 22 12,9 C 0,0 km/h (0 Bft)
13.07.2015 13:40 18,7 C 23,3 C 70 % 1014,6 hPa 0,0 mm 2,1 km/h (1 Bft) N-NW 337 13,1 C 3,4 km/h (1 Bft)
13.07.2015 13:45 18,9 C 23,7 C 70 % 1014,6 hPa 0,0 mm 2,6 km/h (1 Bft) NW 315 13,3 C 0,0 km/h (0 Bft)
13.07.2015 13:50 18,7 C 23,4 C 69 % 1014,4 hPa 0,0 mm 5,2 km/h (1 Bft) W 270 12,9 C 6,0 km/h (2 Bft)
13.07.2015 13:55 18,7 C 23,0 C 69 % 1014,4 hPa 0,0 mm 5,2 km/h (1 Bft) N 360 12,9 C 4,4 km/h (1 Bft)
13.07.2015 13:58 19,0 C 22,9 C 69 % 1014,4 hPa 0,0 mm 5,4 km/h (1 Bft) W 270 13,2 C 7,8 km/h (2 Bft)
13.07.2015 14:00 19,0 C 22,9 C 69 % 1014,4 hPa 0,0 mm 5,4 km/h (1 Bft) W 270 13,2 C 7,8 km/h (2 Bft)
13.07.2015 14:05 19,2 C 23,0 C 68 % 1014,4 hPa 0,0 mm 5,7 km/h (1 Bft) SW 225 13,1 C 2,8 km/h (1 Bft)
13.07.2015 14:10 19,6 C 23,6 C 68 % 1014,4 hPa 0,0 mm 4,9 km/h (1 Bft) N-NW 337 13,5 C 7,5 km/h (2 Bft)
13.07.2015 14:15 19,9 C 24,2 C 68 % 1014,4 hPa 0,0 mm 4,7 km/h (1 Bft) NW 315 13,8 C 6,2 km/h (2 Bft)
13.07.2015 14:20 19,9 C 24,2 C 68 % 1014,4 hPa 0,0 mm 4,7 km/h (1 Bft) N-NW 337 13,8 C 6,7 km/h (2 Bft)
13.07.2015 14:25 19,9 C 23,9 C 68 % 1014,4 hPa 0,0 mm 4,9 km/h (1 Bft) W-SW 247 13,8 C 3,6 km/h (1 Bft)
13.07.2015 14:30 19,6 C 23,2 C 67 % 1014,4 hPa 0,0 mm 7,3 km/h (2 Bft) NW 315 13,3 C 17,1 km/h (3 Bft)
13.07.2015 14:35 19,4 C 22,4 C 67 % 1014,4 hPa 0,0 mm 7,8 km/h (2 Bft) NW 315 13,1 C 9,3 km/h (2 Bft)
13.07.2015 14:40 19,2 C 21,4 C 68 % 1014,4 hPa 0,0 mm 5,7 km/h (1 Bft) W 270 13,1 C 2,8 km/h (1 Bft)
13.07.2015 14:45 19,3 C 21,2 C 68 % 1014,4 hPa 0,0 mm 4,9 km/h (1 Bft) W 270 13,2 C 3,9 km/h (1 Bft)
13.07.2015 14:50 19,8 C 22,2 C 69 % 1014,6 hPa 0,0 mm 3,4 km/h (1 Bft) W-NW 292 13,9 C 0,0 km/h (0 Bft)
13.07.2015 14:55 19,8 C 22,5 C 68 % 1014,6 hPa 0,0 mm 5,4 km/h (1 Bft) W 270 13,7 C 9,3 km/h (2 Bft)
13.07.2015 15:00 19,7 C 22,2 C 68 % 1014,6 hPa 0,0 mm 5,7 km/h (1 Bft) S 180 13,6 C 2,8 km/h (1 Bft)
13.07.2015 15:05 19,6 C 21,9 C 68 % 1014,6 hPa 0,0 mm 3,9 km/h (1 Bft) S 180 13,5 C 6,2 km/h (2 Bft)
13.07.2015 15:10 19,2 C 21,2 C 69 % 1014,3 hPa 0,0 mm 2,1 km/h (1 Bft) SW 225 13,4 C 0,0 km/h (0 Bft)
13.07.2015 15:15 19,1 C 20,7 C 69 % 1014,3 hPa 0,0 mm 1,3 km/h (1 Bft) W 270 13,3 C 0,0 km/h (0 Bft)
13.07.2015 15:20 19,0 C 20,2 C 70 % 1014,3 hPa 0,0 mm 0,3 km/h (0 Bft) NW 315 13,4 C 0,0 km/h (0 Bft)
13.07.2015 15:25 19,2 C 20,4 C 70 % 1014,3 hPa 0,0 mm 0,5 km/h (0 Bft) W 270 13,6 C 0,0 km/h (0 Bft)
13.07.2015 15:30 19,4 C 20,8 C 71 % 1014,3 hPa 0,0 mm 1,6 km/h (1 Bft) W-NW 292 14,0 C 0,0 km/h (0 Bft)
13.07.2015 15:35 19,3 C 20,8 C 70 % 1014,3 hPa 0,0 mm 1,6 km/h (1 Bft) SW 225 13,7 C 0,0 km/h (0 Bft)
13.07.2015 15:40 19,1 C 20,5 C 70 % 1014,3 hPa 0,0 mm 0,8 km/h (0 Bft) W 270 13,5 C 0,0 km/h (0 Bft)
13.07.2015 15:45 19,1 C 20,4 C 70 % 1014,3 hPa 0,0 mm 1,0 km/h (0 Bft) S-SW 202 13,5 C 0,0 km/h (0 Bft)
13.07.2015 15:50 19,1 C 20,2 C 71 % 1014,2 hPa 0,0 mm 0,3 km/h (0 Bft) W 270 13,7 C 0,0 km/h (0 Bft)
13.07.2015 15:55 19,2 C 20,4 C 71 % 1014,2 hPa 0,0 mm 0,8 km/h (0 Bft) W 270 13,8 C 6,5 km/h (2 Bft)
13.07.2015 16:00 19,2 C 20,6 C 70 % 1014,2 hPa 0,0 mm 1,8 km/h (1 Bft) W-SW 247 13,6 C 0,0 km/h (0 Bft)
13.07.2015 16:05 19,3 C 20,8 C 70 % 1014,2 hPa 0,0 mm 2,1 km/h (1 Bft) W-NW 292 13,7 C 6,0 km/h (2 Bft)
13.07.2015 16:10 19,2 C 20,8 C 70 % 1014,2 hPa 0,0 mm 0,8 km/h (0 Bft) W 270 13,6 C 0,0 km/h (0 Bft)
13.07.2015 16:15 19,2 C 20,7 C 70 % 1014,2 hPa 0,0 mm 1,0 km/h (0 Bft) W-SW 247 13,6 C 2,8 km/h (1 Bft)
13.07.2015 16:20 19,3 C 20,8 C 70 % 1014,2 hPa 0,0 mm 1,0 km/h (0 Bft) NW 315 13,7 C 0,0 km/h (0 Bft)
13.07.2015 16:25 19,3 C 20,9 C 70 % 1014,2 hPa 0,0 mm 1,3 km/h (1 Bft) W-SW 247 13,7 C 6,5 km/h (2 Bft)
13.07.2015 16:30 19,2 C 20,6 C 70 % 1014,4 hPa 0,0 mm 2,3 km/h (1 Bft) W 270 13,6 C 3,4 km/h (1 Bft)
13.07.2015 16:35 19,1 C 20,5 C 70 % 1014,4 hPa 0,0 mm 3,1 km/h (1 Bft) NW 315 13,5 C 3,4 km/h (1 Bft)
13.07.2015 16:40 19,2 C 20,4 C 70 % 1014,4 hPa 0,0 mm 2,3 km/h (1 Bft) W-SW 247 13,6 C 0,0 km/h (0 Bft)
13.07.2015 16:45 19,2 C 20,4 C 69 % 1014,4 hPa 0,0 mm 1,6 km/h (1 Bft) W-NW 292 13,4 C 3,4 km/h (1 Bft)
13.07.2015 16:50 19,1 C 20,2 C 69 % 1014,2 hPa 0,0 mm 1,0 km/h (0 Bft) S 180 13,3 C 0,0 km/h (0 Bft)
13.07.2015 16:55 19,1 C 20,2 C 69 % 1014,2 hPa 0,0 mm 1,6 km/h (1 Bft) SO 135 13,3 C 0,0 km/h (0 Bft)
13.07.2015 17:00 19,1 C 20,3 C 69 % 1014,2 hPa 0,0 mm 1,8 km/h (1 Bft) S-SW 202 13,3 C 6,2 km/h (2 Bft)
13.07.2015 17:05 19,2 C 20,4 C 68 % 1014,2 hPa 0,0 mm 1,8 km/h (1 Bft) S 180 13,1 C 3,9 km/h (1 Bft)
13.07.2015 17:10 19,3 C 20,7 C 68 % 1014,1 hPa 0,0 mm 1,8 km/h (1 Bft) SW 225 13,2 C 0,0 km/h (0 Bft)
13.07.2015 17:15 19,5 C 21,1 C 68 % 1014,1 hPa 0,0 mm 0,8 km/h (0 Bft) W-SW 247 13,4 C 0,0 km/h (0 Bft)
13.07.2015 17:20 19,8 C 21,7 C 67 % 1014,1 hPa 0,0 mm 1,8 km/h (1 Bft) W 270 13,5 C 0,0 km/h (0 Bft)
13.07.2015 17:25 19,8 C 22,1 C 67 % 1014,1 hPa 0,0 mm 2,8 km/h (1 Bft) S-SW 202 13,5 C 8,5 km/h (2 Bft)
13.07.2015 17:30 19,8 C 22,3 C 66 % 1014,1 hPa 0,0 mm 3,6 km/h (1 Bft) S-SO 157 13,3 C 4,9 km/h (1 Bft)
13.07.2015 17:35 19,9 C 22,5 C 66 % 1014,1 hPa 0,0 mm 4,4 km/h (1 Bft) S-SO 157 13,4 C 5,4 km/h (1 Bft)
13.07.2015 17:40 19,8 C 22,2 C 66 % 1014,1 hPa 0,0 mm 2,8 km/h (1 Bft) W-NW 292 13,3 C 0,0 km/h (0 Bft)
13.07.2015 17:45 19,8 C 22,0 C 66 % 1014,1 hPa 0,0 mm 2,1 km/h (1 Bft) W-SW 247 13,3 C 0,0 km/h (0 Bft)
13.07.2015 17:50 19,8 C 21,9 C 67 % 1013,9 hPa 0,0 mm 1,0 km/h (0 Bft) W 270 13,5 C 5,2 km/h (1 Bft)
13.07.2015 17:55 19,8 C 21,5 C 66 % 1013,9 hPa 0,0 mm 2,6 km/h (1 Bft) W 270 13,3 C 6,0 km/h (2 Bft)
13.07.2015 18:00 19,6 C 20,9 C 66 % 1013,9 hPa 0,0 mm 4,4 km/h (1 Bft) W 270 13,1 C 4,7 km/h (1 Bft)
13.07.2015 18:05 19,6 C 20,8 C 66 % 1013,9 hPa 0,0 mm 3,4 km/h (1 Bft) NW 315 13,1 C 0,0 km/h (0 Bft)
13.07.2015 18:10 19,6 C 20,5 C 67 % 1013,9 hPa 0,0 mm 2,6 km/h (1 Bft) N-NW 337 13,3 C 8,3 km/h (2 Bft)
13.07.2015 18:15 19,5 C 20,2 C 67 % 1013,9 hPa 0,0 mm 2,6 km/h (1 Bft) NW 315 13,2 C 12,4 km/h (3 Bft)
13.07.2015 18:20 19,3 C 19,8 C 67 % 1013,9 hPa 0,0 mm 3,1 km/h (1 Bft) W-SW 247 13,0 C 0,0 km/h (0 Bft)
13.07.2015 18:25 19,2 C 19,6 C 67 % 1013,9 hPa 0,0 mm 1,6 km/h (1 Bft) NW 315 12,9 C 0,0 km/h (0 Bft)
13.07.2015 18:30 19,0 C 19,4 C 68 % 1013,8 hPa 0,0 mm 0,0 km/h (0 Bft) W-NW 292 13,0 C 0,0 km/h (0 Bft)
13.07.2015 18:35 18,8 C 19,2 C 68 % 1013,8 hPa 0,0 mm 0,0 km/h (0 Bft) NW 315 12,8 C 0,0 km/h (0 Bft)
13.07.2015 18:40 18,7 C 19,1 C 68 % 1013,8 hPa 0,0 mm 0,3 km/h (0 Bft) W-NW 292 12,7 C 3,4 km/h (1 Bft)
13.07.2015 18:45 18,7 C 19,0 C 68 % 1013,8 hPa 0,0 mm 0,5 km/h (0 Bft) W-NW 292 12,7 C 0,0 km/h (0 Bft)
13.07.2015 18:50 18,7 C 19,0 C 68 % 1013,8 hPa 0,0 mm 0,5 km/h (0 Bft) W-SW 247 12,7 C 0,0 km/h (0 Bft)
13.07.2015 18:55 18,7 C 18,9 C 68 % 1013,8 hPa 0,0 mm 0,3 km/h (0 Bft) SW 225 12,7 C 0,0 km/h (0 Bft)
13.07.2015 19:00 18,6 C 19,0 C 68 % 1013,8 hPa 0,0 mm 0,0 km/h (0 Bft) SW 225 12,6 C 0,0 km/h (0 Bft)
13.07.2015 19:05 18,5 C 18,9 C 68 % 1013,8 hPa 0,0 mm 0,5 km/h (0 Bft) SW 225 12,5 C 0,0 km/h (0 Bft)
13.07.2015 19:10 18,4 C 18,8 C 68 % 1013,9 hPa 0,0 mm 0,8 km/h (0 Bft) S 180 12,4 C 3,1 km/h (1 Bft)
13.07.2015 19:15 18,4 C 18,8 C 68 % 1013,9 hPa 0,0 mm 0,5 km/h (0 Bft) S 180 12,4 C 0,0 km/h (0 Bft)
13.07.2015 19:20 18,2 C 18,6 C 68 % 1013,9 hPa 0,0 mm 1,6 km/h (1 Bft) S 180 12,2 C 0,0 km/h (0 Bft)
13.07.2015 19:25 18,0 C 18,6 C 69 % 1013,9 hPa 0,0 mm 1,0 km/h (0 Bft) S-SO 157 12,2 C 0,0 km/h (0 Bft)
13.07.2015 19:30 18,0 C 18,4 C 70 % 1014,1 hPa 0,0 mm 0,5 km/h (0 Bft) S-SO 157 12,4 C 0,0 km/h (0 Bft)
13.07.2015 19:35 17,9 C 18,3 C 70 % 1014,1 hPa 0,0 mm 0,3 km/h (0 Bft) S-SO 157 12,3 C 0,0 km/h (0 Bft)
13.07.2015 19:40 17,8 C 18,2 C 70 % 1014,1 hPa 0,0 mm 0,3 km/h (0 Bft) S-SO 157 12,3 C 0,0 km/h (0 Bft)
13.07.2015 19:45 17,7 C 18,1 C 72 % 1014,1 hPa 0,0 mm 0,5 km/h (0 Bft) S-SO 157 12,6 C 0,0 km/h (0 Bft)
13.07.2015 19:50 17,6 C 17,9 C 71 % 1013,9 hPa 0,0 mm 0,5 km/h (0 Bft) SO 135 12,3 C 0,0 km/h (0 Bft)
13.07.2015 19:55 17,5 C 17,8 C 72 % 1013,9 hPa 0,0 mm 0,3 km/h (0 Bft) SO 135 12,4 C 0,0 km/h (0 Bft)
13.07.2015 19:59 17,4 C 17,7 C 72 % 1013,9 hPa 0,0 mm 0,0 km/h (0 Bft) S-SO 157 12,3 C 0,0 km/h (0 Bft)
13.07.2015 20:00 17,4 C 17,7 C 72 % 1013,9 hPa 0,0 mm 0,0 km/h (0 Bft) S-SO 157 12,3 C 0,0 km/h (0 Bft)
13.07.2015 20:05 17,4 C 17,6 C 73 % 1013,9 hPa 0,0 mm 0,0 km/h (0 Bft) S-SO 157 12,5 C 0,0 km/h (0 Bft)
13.07.2015 20:10 17,2 C 17,4 C 73 % 1013,9 hPa 0,0 mm 0,0 km/h (0 Bft) S-SO 157 12,3 C 0,0 km/h (0 Bft)
13.07.2015 20:15 17,2 C 17,4 C 73 % 1013,9 hPa 0,0 mm 0,0 km/h (0 Bft) S-SO 157 12,3 C 0,0 km/h (0 Bft)
13.07.2015 20:20 17,2 C 17,3 C 73 % 1013,9 hPa 0,0 mm 0,0 km/h (0 Bft) SO 135 12,3 C 0,0 km/h (0 Bft)
13.07.2015 20:25 17,1 C 17,2 C 74 % 1013,9 hPa 0,0 mm 0,0 km/h (0 Bft) SO 135 12,4 C 0,0 km/h (0 Bft)
13.07.2015 20:30 17,0 C 16,9 C 74 % 1014,1 hPa 0,0 mm 0,0 km/h (0 Bft) SO 135 12,3 C 0,0 km/h (0 Bft)
13.07.2015 20:35 16,8 C 16,8 C 76 % 1014,1 hPa 0,0 mm 0,0 km/h (0 Bft) SO 135 12,5 C 0,0 km/h (0 Bft)
13.07.2015 20:40 16,8 C 16,7 C 77 % 1014,1 hPa 0,0 mm 0,3 km/h (0 Bft) O 90 12,7 C 0,0 km/h (0 Bft)
13.07.2015 20:45 16,7 C 16,7 C 77 % 1014,1 hPa 0,0 mm 0,3 km/h (0 Bft) SO 135 12,6 C 0,0 km/h (0 Bft)
13.07.2015 20:50 16,7 C 16,7 C 77 % 1014,2 hPa 0,0 mm 0,0 km/h (0 Bft) SO 135 12,6 C 0,0 km/h (0 Bft)
13.07.2015 20:55 16,7 C 16,6 C 77 % 1014,2 hPa 0,0 mm 0,0 km/h (0 Bft) SW 225 12,6 C 2,6 km/h (1 Bft)
13.07.2015 21:00 16,6 C 16,5 C 77 % 1014,2 hPa 0,0 mm 0,0 km/h (0 Bft) SW 225 12,5 C 0,0 km/h (0 Bft)
13.07.2015 21:05 16,6 C 16,5 C 78 % 1014,2 hPa 0,0 mm 0,0 km/h (0 Bft) S-SW 202 12,7 C 0,0 km/h (0 Bft)
13.07.2015 21:10 16,5 C 16,4 C 78 % 1014,2 hPa 0,0 mm 0,0 km/h (0 Bft) S 180 12,6 C 0,0 km/h (0 Bft)
13.07.2015 21:15 16,5 C 16,4 C 78 % 1014,2 hPa 0,0 mm 0,0 km/h (0 Bft) SW 225 12,6 C 0,0 km/h (0 Bft)
13.07.2015 21:20 16,4 C 16,4 C 77 % 1014,2 hPa 0,0 mm 0,0 km/h (0 Bft) SO 135 12,4 C 0,0 km/h (0 Bft)
13.07.2015 21:25 16,4 C 16,3 C 79 % 1014,2 hPa 0,0 mm 0,0 km/h (0 Bft) S-SO 157 12,7 C 0,0 km/h (0 Bft)
13.07.2015 21:30 16,3 C 16,3 C 79 % 1014,1 hPa 0,0 mm 0,0 km/h (0 Bft) SO 135 12,6 C 0,0 km/h (0 Bft)
13.07.2015 21:35 16,2 C 16,2 C 79 % 1014,1 hPa 0,0 mm 0,0 km/h (0 Bft) SO 135 12,6 C 0,0 km/h (0 Bft)
13.07.2015 21:40 16,1 C 16,1 C 78 % 1014,1 hPa 0,0 mm 0,0 km/h (0 Bft) SO 135 12,3 C 0,0 km/h (0 Bft)
13.07.2015 21:45 16,1 C 16,1 C 78 % 1014,1 hPa 0,0 mm 0,0 km/h (0 Bft) SO 135 12,3 C 0,0 km/h (0 Bft)
13.07.2015 21:50 16,1 C 16,1 C 78 % 1014,2 hPa 0,0 mm 0,0 km/h (0 Bft) S-SO 157 12,3 C 0,0 km/h (0 Bft)
13.07.2015 21:55 16,0 C 16,1 C 78 % 1014,2 hPa 0,0 mm 0,0 km/h (0 Bft) S-SO 157 12,2 C 0,0 km/h (0 Bft)
13.07.2015 22:00 16,0 C 16,1 C 78 % 1014,2 hPa 0,0 mm 0,0 km/h (0 Bft) SO 135 12,2 C 0,0 km/h (0 Bft)
13.07.2015 22:05 16,0 C 15,9 C 78 % 1014,2 hPa 0,0 mm 0,0 km/h (0 Bft) SO 135 12,2 C 0,0 km/h (0 Bft)
13.07.2015 22:10 15,9 C 15,8 C 79 % 1014,2 hPa 0,0 mm 0,0 km/h (0 Bft) SO 135 12,3 C 0,0 km/h (0 Bft)
13.07.2015 22:15 15,9 C 15,7 C 79 % 1014,2 hPa 0,0 mm 0,3 km/h (0 Bft) S-SO 157 12,3 C 0,0 km/h (0 Bft)
13.07.2015 22:20 15,9 C 15,6 C 81 % 1014,2 hPa 0,0 mm 0,3 km/h (0 Bft) SO 135 12,6 C 0,0 km/h (0 Bft)
13.07.2015 22:25 15,8 C 15,5 C 81 % 1014,2 hPa 0,0 mm 0,8 km/h (0 Bft) SO 135 12,5 C 4,1 km/h (1 Bft)
13.07.2015 22:30 15,8 C 15,5 C 82 % 1014,1 hPa 0,0 mm 1,6 km/h (1 Bft) S-SO 157 12,7 C 0,0 km/h (0 Bft)
13.07.2015 22:35 15,7 C 15,5 C 82 % 1014,1 hPa 0,0 mm 0,8 km/h (0 Bft) SO 135 12,6 C 0,0 km/h (0 Bft)
13.07.2015 22:40 15,6 C 15,4 C 82 % 1014,1 hPa 0,0 mm 0,0 km/h (0 Bft) SO 135 12,5 C 0,0 km/h (0 Bft)
13.07.2015 22:45 15,6 C 15,5 C 82 % 1014,1 hPa 0,0 mm 0,0 km/h (0 Bft) SO 135 12,5 C 0,0 km/h (0 Bft)
13.07.2015 22:50 15,6 C 15,5 C 82 % 1014,3 hPa 0,0 mm 0,0 km/h (0 Bft) S-SO 157 12,5 C 0,0 km/h (0 Bft)
13.07.2015 22:55 15,6 C 15,5 C 80 % 1014,3 hPa 0,0 mm 0,0 km/h (0 Bft) S-SW 202 12,2 C 0,0 km/h (0 Bft)
13.07.2015 23:00 15,6 C 15,6 C 81 % 1014,3 hPa 0,0 mm 0,0 km/h (0 Bft) S 180 12,3 C 0,0 km/h (0 Bft)
13.07.2015 23:05 15,6 C 15,6 C 81 % 1014,3 hPa 0,0 mm 0,0 km/h (0 Bft) S 180 12,3 C 0,0 km/h (0 Bft)
13.07.2015 23:10 15,6 C 15,5 C 83 % 1014,3 hPa 0,0 mm 0,0 km/h (0 Bft) O-NO 67 12,7 C 0,0 km/h (0 Bft)
13.07.2015 23:15 15,5 C 15,5 C 81 % 1014,3 hPa 0,0 mm 0,0 km/h (0 Bft) O-NO 67 12,3 C 0,0 km/h (0 Bft)
13.07.2015 23:20 15,5 C 15,5 C 81 % 1014,3 hPa 0,0 mm 0,0 km/h (0 Bft) O-NO 67 12,3 C 0,0 km/h (0 Bft)
13.07.2015 23:25 15,5 C 15,5 C 81 % 1014,3 hPa 0,0 mm 0,0 km/h (0 Bft) O-NO 67 12,3 C 0,0 km/h (0 Bft)
13.07.2015 23:30 15,5 C 15,5 C 82 % 1014,3 hPa 0,0 mm 0,0 km/h (0 Bft) O-SO 112 12,4 C 0,0 km/h (0 Bft)
13.07.2015 23:35 15,5 C 15,5 C 82 % 1014,3 hPa 0,0 mm 0,0 km/h (0 Bft) O 90 12,4 C 0,0 km/h (0 Bft)
13.07.2015 23:40 15,5 C 15,5 C 82 % 1014,3 hPa 0,0 mm 0,0 km/h (0 Bft) O-SO 112 12,4 C 0,0 km/h (0 Bft)
13.07.2015 23:45 15,5 C 15,5 C 82 % 1014,3 hPa 0,0 mm 0,0 km/h (0 Bft) O-SO 112 12,4 C 0,0 km/h (0 Bft)
13.07.2015 23:50 15,6 C 15,5 C 82 % 1014,2 hPa 0,0 mm 0,0 km/h (0 Bft) SO 135 12,5 C 0,0 km/h (0 Bft)
13.07.2015 23:55 15,6 C 15,6 C 82 % 1014,2 hPa 0,0 mm 0,0 km/h (0 Bft) O-SO 112 12,5 C 0,0 km/h (0 Bft)
_ Min-Zeit 06:45 06:40 00:50 19:05 - 23:55 - - 01:15 23:55
Minimum _ 12,9 C 12,7 C 57 % 1013,8 hPa - 0,0 km/h (0 Bft) - - 8,3 C 0,0 km/h (0 Bft)
_ Max-Zeit 17:35 14:20 06:40 10:25 02:30 02:00 - - 15:30 02:00
Maximum _ 19,9 C 24,2 C 88 % 1014,8 hPa 1,4 mm 11,9 km/h
W (2 Bft)
- - 14,0 C 23,0 km/h
W (4 Bft)
Durchschnitt _ 16,2 C 17,0 C 76 % 1014,3 hPa #2,7 mm 1,5 km/h (1 Bft) NW - 11,8 C 2,1 km/h (1 Bft)